BAW292 ESGG-EDDF

Flight info

Callsign BAW292
Flight time N/A
Altitude 37000
Route TOPLA L996 ERNOV DCT NIKDA/N0454F380 DCT NOBRI DCT BUMIL DCT HLZ DCT RIMET/N0453F310 T157 KOKEB/N0408F230 T157 KERAX KERAX5A
Aircraft B738/M-SDE2E3FGHIRWXY/LB1

Departure

Time N/A
Airport Göteborg Landvetter Airport (ESGG)

Arrival

Time 2026-05-04 17:31
Airport Frankfurt Main Airport (EDDF)
Time Latitude Longitude Altitude Speed Heading
2026-05-04 16:33 55.21592 12.39537 37002 ft 452 kts 186°
2026-05-04 16:34 55.12223 12.37827 37002 ft 450 kts 186°
2026-05-04 16:35 54.93517 12.34437 37003 ft 453 kts 186°
2026-05-04 16:36 54.84089 12.32741 37002 ft 455 kts 186°
2026-05-04 16:37 54.74604 12.31042 37002 ft 457 kts 186°
2026-05-04 16:38 54.61929 12.28767 37000 ft 458 kts 188°
2026-05-04 16:39 54.46709 12.21175 37001 ft 457 kts 198°
2026-05-04 16:40 54.34569 12.14751 37000 ft 456 kts 197°
2026-05-04 16:41 54.19408 12.06867 37001 ft 455 kts 197°
2026-05-04 16:43 54.04286 11.99057 37001 ft 454 kts 197°
2026-05-04 16:43 53.95245 11.94415 37002 ft 454 kts 197°
2026-05-04 16:45 53.89198 11.91323 37001 ft 454 kts 197°
2026-05-04 16:47 53.49836 11.71417 37002 ft 456 kts 197°
2026-05-04 16:48 53.37704 11.65358 37001 ft 456 kts 197°
2026-05-04 16:49 53.25809 11.58243 37007 ft 454 kts 215°
2026-05-04 16:50 53.21379 11.50830 37008 ft 453 kts 235°
2026-05-04 16:50 53.17913 11.42386 37000 ft 454 kts 235°
2026-05-04 16:51 53.11993 11.30124 37003 ft 454 kts 219°
2026-05-04 16:51 53.06574 11.24786 37004 ft 454 kts 202°
2026-05-04 16:52 53.00720 11.21021 37000 ft 455 kts 201°
2026-05-04 16:53 52.91857 11.15367 37000 ft 455 kts 201°
2026-05-04 16:54 52.80059 11.07681 37001 ft 456 kts 201°
2026-05-04 16:55 52.62378 10.96221 37001 ft 456 kts 201°
2026-05-04 16:56 52.47610 10.86727 37001 ft 456 kts 201°
2026-05-04 16:57 52.38749 10.81063 37001 ft 456 kts 201°
2026-05-04 16:58 52.26820 10.73993 37002 ft 456 kts 199°
2026-05-04 17:00 52.08831 10.63861 37003 ft 456 kts 199°
2026-05-04 17:01 51.93887 10.55427 37001 ft 456 kts 199°
2026-05-04 17:02 51.81901 10.48709 37004 ft 457 kts 199°
2026-05-04 17:03 51.72869 10.43671 37003 ft 458 kts 199°
2026-05-04 17:03 51.63819 10.38645 37004 ft 459 kts 199°
2026-05-04 17:04 51.51754 10.31976 37000 ft 459 kts 199°
2026-05-04 17:05 51.39657 10.25325 36444 ft 464 kts 199°
2026-05-04 17:06 51.34550 10.22657 35393 ft 460 kts 194°
2026-05-04 17:06 51.31399 10.21762 34671 ft 460 kts 185°
2026-05-04 17:07 51.25037 10.21655 33174 ft 461 kts 180°
2026-05-04 17:07 51.22869 10.21682 32644 ft 462 kts 180°
2026-05-04 17:07 51.18603 10.21677 31556 ft 463 kts 180°
2026-05-04 17:07 51.15376 10.21630 30699 ft 464 kts 181°
2026-05-04 17:08 51.12142 10.21567 29859 ft 465 kts 181°
2026-05-04 17:08 51.05745 10.21438 28600 ft 456 kts 181°
2026-05-04 17:08 51.02586 10.21376 27965 ft 451 kts 181°
2026-05-04 17:09 50.99462 10.21316 27333 ft 447 kts 181°
2026-05-04 17:09 50.96368 10.21257 26703 ft 443 kts 181°
2026-05-04 17:09 50.93324 10.21200 26530 ft 428 kts 181°
2026-05-04 17:10 50.87504 10.21089 26315 ft 408 kts 181°
2026-05-04 17:10 50.79649 10.18041 24867 ft 386 kts 220°
2026-05-04 17:11 50.77830 10.14992 24314 ft 379 kts 236°
2026-05-04 17:11 50.76550 10.11401 23831 ft 372 kts 243°
2026-05-04 17:11 50.74298 10.04132 22766 ft 366 kts 244°
2026-05-04 17:12 50.73180 10.00504 22213 ft 368 kts 244°
2026-05-04 17:12 50.70915 9.93300 21138 ft 370 kts 243°
2026-05-04 17:13 50.67432 9.82410 19495 ft 371 kts 243°
2026-05-04 17:14 50.63925 9.71559 17848 ft 369 kts 240°
2026-05-04 17:14 50.62355 9.68379 17281 ft 366 kts 223°
2026-05-04 17:14 50.58053 9.64489 16209 ft 353 kts 200°
2026-05-04 17:15 50.55772 9.63172 15704 ft 346 kts 200°
2026-05-04 17:15 50.51337 9.60535 14696 ft 335 kts 201°
2026-05-04 17:16 50.45222 9.46408 12115 ft 312 kts 254°
2026-05-04 17:17 50.44645 9.43225 11618 ft 310 kts 254°
2026-05-04 17:17 50.42878 9.33739 11010 ft 293 kts 253°
2026-05-04 17:18 50.42296 9.30672 11001 ft 293 kts 253°
2026-05-04 17:18 50.41133 9.24595 10782 ft 287 kts 252°
2026-05-04 17:19 50.39795 9.18758 9846 ft 287 kts 250°
2026-05-04 17:19 50.38418 9.12933 8921 ft 283 kts 250°
2026-05-04 17:20 50.37076 9.07176 8029 ft 279 kts 250°
2026-05-04 17:20 50.35723 9.01514 7224 ft 275 kts 243°
2026-05-04 17:20 50.34547 8.99172 7037 ft 278 kts 220°
2026-05-04 17:21 50.30992 8.97191 7000 ft 276 kts 178°
2026-05-04 17:21 50.27507 8.99478 6990 ft 278 kts 136°
2026-05-04 17:22 50.26301 9.01836 7016 ft 278 kts 125°
2026-05-04 17:22 50.25221 9.04316 6887 ft 275 kts 124°
2026-05-04 17:23 50.21863 9.11484 6044 ft 276 kts 143°
2026-05-04 17:23 50.20200 9.12845 6004 ft 274 kts 164°
2026-05-04 17:23 50.16625 9.12041 5999 ft 267 kts 222°
2026-05-04 17:24 50.15655 9.09677 5989 ft 254 kts 255°
2026-05-04 17:24 50.14408 9.01910 5998 ft 254 kts 252°
2026-05-04 17:25 50.13823 8.99315 5729 ft 252 kts 250°
2026-05-04 17:25 50.12594 8.94243 5085 ft 249 kts 249°
2026-05-04 17:26 50.11372 8.89220 4427 ft 246 kts 249°
2026-05-04 17:26 50.09715 8.82379 3523 ft 199 kts 249°
2026-05-04 17:27 50.08802 8.78598 3033 ft 175 kts 250°
2026-05-04 17:27 50.07995 8.75254 2581 ft 157 kts 250°
2026-05-04 17:28 50.07245 8.72139 2190 ft 154 kts 250°
2026-05-04 17:29 50.06127 8.67493 1582 ft 153 kts 250°
2026-05-04 17:29 50.05039 8.62962 989 ft 152 kts 250°
2026-05-04 17:30 50.03979 8.58541 402 ft 138 kts 250°
2026-05-04 17:31 50.03471 8.56392 360 ft 69 kts 248°
2026-05-04 17:31 50.03451 8.55950 358 ft 0 kts 278°
2026-05-04 17:32 50.03454 8.55924 354 ft 4 kts 278°
2026-05-04 17:33 50.03513 8.55679 351 ft 6 kts 351°
2026-05-04 17:33 50.03555 8.55725 351 ft 6 kts 70°
2026-05-04 17:34 50.03595 8.55908 360 ft 8 kts 71°
2026-05-04 17:34 50.03618 8.55997 360 ft 10 kts 66°
2026-05-04 17:35 50.03730 8.56441 360 ft 18 kts 70°
2026-05-04 17:35 50.03827 8.56858 362 ft 23 kts 71°
2026-05-04 17:35 50.03878 8.57089 362 ft 23 kts 70°
2026-05-04 17:36 50.03935 8.57318 366 ft 23 kts 69°
2026-05-04 17:36 50.03996 8.57559 367 ft 25 kts 68°
2026-05-04 17:36 50.04055 8.57821 364 ft 27 kts 71°
2026-05-04 17:36 50.04121 8.58093 365 ft 26 kts 69°
2026-05-04 17:37 50.04185 8.58357 369 ft 26 kts 69°
2026-05-04 17:37 50.04241 8.58599 370 ft 23 kts 69°
2026-05-04 17:37 50.04296 8.58825 376 ft 22 kts 70°
2026-05-04 17:37 50.04351 8.59057 372 ft 24 kts 69°
2026-05-04 17:38 50.04410 8.59296 373 ft 23 kts 69°
2026-05-04 17:38 50.04495 8.59473 374 ft 19 kts
2026-05-04 17:38 50.04564 8.59469 377 ft 6 kts 356°
2026-05-04 17:38 50.04613 8.59464 377 ft 9 kts 355°